Weather History for KJST - June, 2012

Change the Weather History Date:

Thursday, June 21, 2012

  Actual Average Record
Temperature  
Mean Temperature 75 °F 66 °F  
Max Temperature 84 °F 75 °F 98 °F (1933)
Min Temperature 66 °F 57 °F 41 °F (1968)
Degree Days  
Heating Degree Days 0 2  
Month to date heating degree days 70  
Since 1 June heating degree days 70  
Since 1 July heating degree days 6679  
Cooling Degree Days 10 3  
Month to date cooling degree days 43  
Year to date cooling degree days 67  
Since 1 June cooling degree days 43  
Growing Degree Days 25 (Base 50)    
Moisture  
Dew Point 64 °F    
Average Humidity 66    
Maximum Humidity 87    
Minimum Humidity 49    
Precipitation  
Precipitation 0.00 in 0.12 in 2.47 in (1929)
Month to date precipitation 2.97  
Year to date precipitation 19.61  
Sea Level Pressure  
Sea Level Pressure 30.00 in    
Wind  
Wind Speed 6 mph (WSW)    
Max Wind Speed 13 mph    
Max Gust Speed 18 mph    
Visibility 9 miles    
Events Thunderstorm    
T = Trace of Precipitation, MM = Missing Value Source: NWS Daily Summary

Daily Weather History Graph

Daily Weather History Graph

Search for Another Location

Airport or City:

Trip Planner

Search our weather history database for the weather conditions in past years. The results will help you decide how hot, cold, wet, or windy it might be!

Date:

Astronomy

Jun. 21, 2012 Rise Set
Actual Time 5:45 AM EDT 8:48 PM EDT
Civil Twilight 5:12 AM EDT 9:21 PM EDT
Nautical Twilight 4:30 AM EDT 10:04 PM EDT
Astronomical Twilight 3:40 AM EDT 10:53 PM EDT
Moon 7:42 AM EDT (6/21) 10:10 PM EDT (6/21)
Length of Visible Light 16h 09m
Length of Day
15h 03m
Waxing Crescent, 4% of the Moon is Illuminated
Jun 21
Waxing Crescent
Jun 26
First Quarter
Jul 3
Full
Jul 10
Last Quarter
Jul 19
New

Hourly Weather History & Observations

Time (EDT) Temp. Heat Index Dew Point Humidity Pressure Visibility Wind Dir Wind Speed Gust Speed Precip Events Conditions
12:54 AM 72.0 °F - 62.1 °F 71% 30.07 in 10.0 mi SW 4.6 mph - N/A   Clear
1:54 AM 70.0 °F - 62.1 °F 76% 30.07 in 9.0 mi SW 5.8 mph - N/A   Clear
2:54 AM 69.1 °F - 62.1 °F 78% 30.07 in 8.0 mi WSW 5.8 mph - N/A   Clear
3:54 AM 66.9 °F - 62.1 °F 84% 30.07 in 7.0 mi WSW 5.8 mph - N/A   Clear
4:54 AM 66.0 °F - 62.1 °F 87% 30.06 in 7.0 mi SW 4.6 mph - N/A   Clear
5:54 AM 68.0 °F - 63.0 °F 84% 30.07 in 6.0 mi West 4.6 mph - N/A   Haze
6:54 AM 71.1 °F - 63.0 °F 75% 30.08 in 8.0 mi West 5.8 mph - N/A   Clear
7:54 AM 73.0 °F - 63.0 °F 71% 30.07 in 8.0 mi West 5.8 mph - N/A   Clear
8:54 AM 75.0 °F - 64.0 °F 69% 30.07 in 8.0 mi West 6.9 mph - N/A   Clear
9:54 AM 77.0 °F - 64.9 °F 66% 30.06 in 8.0 mi West 6.9 mph - N/A   Clear
10:54 AM 79.0 °F - 64.9 °F 62% 30.04 in 10.0 mi West 9.2 mph - N/A   Clear
11:54 AM 80.1 °F 81.9 °F 64.9 °F 60% 30.04 in 10.0 mi West 6.9 mph - N/A   Partly Cloudy
12:54 PM 82.0 °F 83.4 °F 64.0 °F 54% 30.02 in 10.0 mi West 9.2 mph - N/A   Partly Cloudy
1:54 PM 81.0 °F 82.7 °F 64.9 °F 58% 30.01 in 10.0 mi West 5.8 mph - N/A   Mostly Cloudy
2:54 PM 84.0 °F 84.9 °F 63.0 °F 49% 29.97 in 10.0 mi West 12.7 mph - N/A   Partly Cloudy
3:54 PM 84.0 °F 85.4 °F 64.0 °F 51% 29.96 in 10.0 mi West 10.4 mph 18.4 mph N/A   Partly Cloudy
4:54 PM 84.0 °F 85.4 °F 64.0 °F 51% 29.94 in 10.0 mi West 9.2 mph - N/A   Scattered Clouds
5:54 PM 82.9 °F 84.4 °F 64.0 °F 53% 29.91 in 10.0 mi WSW 6.9 mph - N/A   Partly Cloudy
6:54 PM 82.0 °F 83.4 °F 64.0 °F 54% 29.91 in 10.0 mi WSW 8.1 mph - N/A   Partly Cloudy
7:54 PM 80.1 °F 81.9 °F 64.9 °F 60% 29.91 in 10.0 mi WSW 5.8 mph - N/A   Clear
8:54 PM 78.1 °F - 64.0 °F 62% 29.91 in 10.0 mi SW 5.8 mph - N/A   Clear
9:54 PM 75.9 °F - 64.0 °F 67% 29.91 in 10.0 mi West 5.8 mph - N/A   Clear
10:38 PM 75.2 °F - 64.4 °F 69% 29.98 in 9.0 mi SW 4.6 mph - N/A Thunderstorm Thunderstorm
10:54 PM 73.9 °F - 64.9 °F 73% 29.93 in 8.0 mi South 5.8 mph - N/A   Clear
11:54 PM 73.0 °F - 64.0 °F 73% 29.92 in 8.0 mi SSW 4.6 mph - N/A   Clear